Regional Weather Roundup
Issued by NWS

Home | Current Version | Previous Version | Graphics & Text | Print | Product List | Glossary On
Versions: 1 2 3 4 5 6 7 8 9 10 11 12 13 14 15 16 17 18 19 20 21 22 23 24 25 26 27 28 29 30 31 32 33 34 35 36 37 38 39 40 41 42 43 44 45 46 47 48 49 50
000
ASUS43 KBIS 021610
RWRND

NORTH DAKOTA REGIONAL WEATHER ROUNDUP
NATIONAL WEATHER SERVICE BISMARCK ND
1100 AM CDT MON MAY 02 2016

NOTE: "FAIR" INDICATES FEW OR NO CLOUDS BELOW 12,000 FEET WITH NO
SIGNIFICANT WEATHER AND/OR OBSTRUCTIONS TO VISIBILITY.


NDZ001>003-009>011-017-021700-
NORTHWEST NORTH DAKOTA

CITY           SKY/WX    TMP DP  RH WIND       PRES   REMARKS
WILLISTON      SUNNY     67  38  34 N16       30.03S
MINOT          SUNNY     65  36  34 N8        29.97R
MINOT AFB      SUNNY     61  39  44 NE13      29.97R
$$

NDZ018>021-031>035-040>046-021700-
SOUTHWEST NORTH DAKOTA

CITY           SKY/WX    TMP DP  RH WIND       PRES   REMARKS
BISMARCK       CLOUDY    52  46  80 E7        30.02R
DICKINSON      MOSUNNY   59  34  39 NW24G30   30.00F
GARRISON         N/A     61  39  44 N12       29.96F
HETTINGER ARPT LGT RAIN  62  33  33 NW25G31   30.06F
$$

NDZ004>008-012>016-024-026-027-054-021700-
NORTHEAST NORTH DAKOTA

CITY           SKY/WX    TMP DP  RH WIND       PRES   REMARKS
GRAND FORKS    MOSUNNY   64  32  30 SE5       30.01F
GRND FRKS AFB  SUNNY     64  32  30 E9        30.02R
DEVILS LAKE    CLOUDY    55  40  56 SW6       30.02S
$$

NDZ022-023-025-028>030-036>039-047>053-021700-
SOUTHEAST NORTH DAKOTA

CITY           SKY/WX    TMP DP  RH WIND       PRES   REMARKS
FARGO          SUNNY     63  31  30 VRB3      30.02F
JAMESTOWN      LGT RAIN  52  44  74 S13       30.02F
$$





USA.gov is the U.S. government's official web portal to all federal, state and local government web resources and services.